GFSMA_500_rhum_000.txt.gz
RH
34 27 29 39 43 41 39 36 37 35 34 34 35 35 35 33 31 30 30 29 29 28 29 28 24 21 19 17 14 11 10 18 34 32 28 28 20 19 40 53 100 99 95
42 34 41 44 46 46 43 43 42 40 39 36 31 24 19 15 11 8 8 10 13 16 21 23 25 26 26 24 21 19 14 12 12 21 28 26 26 24 18 28 50 97 97
55 51 56 56 53 50 47 40 27 14 10 9 9 8 8 8 7 6 6 6 6 7 9 12 15 16 20 22 24 22 19 19 15 13 14 23 26 27 26 23 17 43 94
70 66 64 58 49 29 12 9 10 10 10 10 11 11 11 10 8 8 7 6 6 6 6 6 7 7 9 14 18 19 20 22 21 19 17 15 16 27 28 28 29 22 24
70 62 58 45 27 16 12 10 12 14 15 15 14 13 12 12 10 10 9 8 7 6 6 6 6 6 6 7 8 11 15 15 16 22 22 21 18 16 20 31 30 30 23
60 58 53 37 18 14 16 17 18 17 16 14 14 13 13 12 11 10 10 9 8 8 7 6 6 6 6 6 7 8 8 9 12 12 15 22 20 19 16 15 24 32 32
61 44 26 20 20 20 19 19 19 18 17 16 14 14 16 16 15 13 12 11 10 9 9 8 8 8 8 7 7 7 9 10 10 11 11 12 14 19 18 19 15 17 30
30 25 26 25 24 23 22 23 22 24 24 22 20 18 16 17 18 18 18 17 16 15 14 14 12 11 10 10 10 10 11 12 13 15 15 14 12 12 14 15 19 18 17
31 33 34 36 36 35 38 38 29 20 18 24 25 25 24 21 18 18 18 18 18 17 16 16 16 16 15 13 12 12 13 16 18 17 18 21 19 15 12 12 12 15 19
47 57 55 44 36 33 25 19 15 17 20 23 26 28 28 24 20 17 16 14 15 14 14 14 12 12 15 16 15 14 15 18 23 25 23 25 28 25 20 13 12 11 12
43 37 32 28 26 24 19 16 19 24 31 37 35 31 24 19 15 13 14 14 16 16 16 18 16 14 12 12 18 22 25 26 29 36 38 38 37 35 24 24 19 13 12
35 30 26 26 24 20 19 24 35 43 42 33 27 19 15 13 16 20 23 37 46 23 15 15 28 31 30 30 19 16 24 37 53 52 54 53 51 46 35 34 28 22 14
30 27 29 22 22 26 32 40 47 42 40 28 16 15 18 25 61 44 75 85 83 67 19 12 11 13 19 26 30 29 22 19 26 42 54 62 55 49 46 44 34 29 24
34 33 26 30 36 44 50 48 41 30 18 15 18 27 63 84 91 63 81 70 44 37 37 44 42 29 23 22 19 17 15 17 17 16 22 39 48 56 48 51 50 37 38
34 32 34 35 42 42 47 41 28 17 13 23 33 60 97 98 92 80 67 56 57 36 28 30 37 50 67 68 66 50 41 22 12 10 11 11 15 24 36 46 52 52 40
38 38 36 41 48 46 36 20 12 14 22 26 58 70 100 99 79 64 58 50 44 36 23 26 29 34 39 50 58 63 66 65 54 25 11 8 7 7 7 8 18 32 43
38 36 44 47 40 26 15 11 14 18 21 39 90 90 91 68 60 48 45 43 32 27 22 21 22 27 31 34 36 32 38 49 66 67 53 31 11 8 5 5 4 5 8
40 49 48 34 23 13 10 12 19 33 66 80 78 66 59 52 47 41 25 27 38 38 45 47 43 36 28 28 30 32 26 26 37 77 93 91 69 29 14 8 7 6 6
48 47 31 22 13 10 15 20 20 44 61 62 59 57 51 45 32 21 35 38 53 71 77 74 66 71 61 38 37 25 25 29 31 56 97 100 89 70 41 25 16 10 10
46 29 22 13 10 14 27 40 48 58 60 63 62 52 47 39 21 31 44 61 73 84 92 92 95 94 86 71 48 61 27 55 70 53 76 100 99 87 76 56 67 40 33
31 25 13 10 12 21 35 45 53 60 57 63 66 53 46 34 24 44 58 74 80 83 87 87 97 100 100 95 67 70 70 35 100 91 79 84 100 95 95 77 100 100 68
25 14 11 10 14 30 40 48 57 57 51 70 61 55 49 26 36 56 79 91 93 94 96 94 100 100 100 91 91 80 94 72 57 100 93 66 99 99 100 100 83 88 100
15 12 10 12 16 34 48 54 61 67 70 78 66 55 44 25 47 71 90 92 100 100 98 94 100 100 76 46 66 85 100 98 66 64 90 51 59 99 96 99 99 99 72
13 12 12 16 34 51 55 60 71 78 80 83 69 54 38 29 54 83 91 100 100 100 100 100 98 75 66 84 97 100 100 91 75 61 23 17 29 70 82 90 73 88 90
14 11 16 28 46 50 52 69 78 84 85 80 65 50 31 39 71 86 97 100 100 100 80 64 51 86 100 100 100 100 100 90 66 57 32 17 18 39 61 71 79 78 66
14 15 22 41 52 54 60 73 80 83 80 71 63 47 28 49 79 89 100 98 100 100 48 35 27 89 93 91 99 85 82 78 64 45 32 18 17 28 49 63 62 70 71

GFSMA_500_rhum_006.txt.gz
RH
98 98 99 96 73 75 61 54 53 57 44 39 41 42 40 32 20 15 14 14 13 11 10 10 10 8 9 11 16 19 17 16 20 20 16 12 11 21 27 23 27 67 96
98 98 98 97 87 75 63 67 64 58 50 44 40 25 14 8 8 9 10 10 13 13 12 11 11 11 10 8 7 8 11 15 18 18 18 18 14 11 16 25 23 26 68
82 74 91 86 69 83 88 78 57 55 48 43 38 13 8 8 12 14 16 16 15 15 14 13 12 11 10 10 10 8 7 6 7 12 16 17 17 17 15 14 24 23 22
93 77 60 52 79 94 81 64 52 31 25 21 23 22 20 20 20 20 20 20 19 18 16 16 15 14 14 12 11 10 9 9 7 6 7 11 16 17 19 19 14 23 25
57 66 80 80 70 70 67 43 26 25 29 27 26 26 25 24 23 21 19 19 18 17 16 15 14 13 13 12 12 12 11 10 9 8 7 7 7 13 17 18 20 16 20
70 72 70 61 51 40 32 27 28 28 28 29 33 31 28 27 26 25 22 16 13 12 11 10 10 10 11 11 10 10 10 10 9 9 8 8 7 6 9 15 18 20 17
38 34 32 32 33 34 32 30 32 36 42 39 35 34 36 35 31 26 21 18 16 14 13 12 10 9 8 9 9 9 9 9 9 9 9 8 8 7 6 7 11 17 19
35 39 46 51 54 57 55 56 53 47 46 44 45 44 38 32 27 23 20 20 20 17 15 14 11 10 10 8 7 7 7 8 8 8 7 8 8 8 7 6 6 11 17
57 63 67 69 65 64 62 54 50 50 52 48 40 35 31 28 25 25 23 21 19 18 17 16 14 12 11 9 7 6 6 5 6 6 6 6 7 8 8 7 6 6 9
59 61 62 66 66 61 56 56 54 51 43 41 36 32 29 27 24 20 20 20 20 18 12 10 8 7 6 6 7 7 5 5 4 5 6 6 6 6 8 8 8 6 5
63 66 66 61 58 57 57 50 45 42 38 36 34 32 29 27 25 22 19 13 6 5 5 7 10 14 16 18 18 15 9 10 10 7 5 5 6 7 7 8 9 8 7
56 60 58 60 58 53 45 39 37 37 36 33 30 30 28 25 17 6 4 5 6 8 10 12 14 18 27 38 49 48 42 30 15 11 12 9 8 11 11 12 12 11 9
58 62 59 54 50 46 40 42 42 40 35 34 32 29 23 7 5 7 9 9 11 16 23 37 47 46 46 60 71 69 53 36 24 20 11 10 15 15 15 14 15 15 14
54 52 51 55 53 53 52 49 37 33 32 32 28 12 5 9 10 14 18 22 22 26 36 42 41 39 38 37 38 36 33 30 29 29 19 11 8 12 16 15 14 14 24
52 58 62 58 57 57 41 31 31 30 31 16 5 9 10 17 24 28 30 34 34 21 24 34 35 33 28 24 22 22 22 24 24 25 27 24 13 7 9 14 15 17 15
67 66 62 63 57 36 31 31 33 23 6 8 11 12 24 33 37 43 47 53 51 40 22 36 30 26 22 23 23 28 25 22 18 18 24 28 22 12 8 12 17 17 18
74 70 70 53 34 32 33 32 12 5 8 11 11 17 34 41 48 55 62 66 60 50 36 36 28 24 30 36 42 45 48 48 42 22 20 32 34 19 18 17 30 25 20
74 76 55 34 34 36 26 4 6 8 11 12 16 31 40 44 50 58 67 70 63 51 40 32 27 36 44 52 55 56 63 65 62 46 26 32 55 53 30 24 31 49 36
77 56 36 34 35 18 4 8 9 10 10 13 24 41 44 47 58 71 78 78 56 45 40 27 37 50 55 67 77 79 79 77 74 70 50 30 47 67 72 49 24 27 44
57 38 33 35 15 5 9 11 10 10 14 24 41 50 56 61 72 76 78 67 50 42 31 33 50 59 70 84 82 86 85 85 90 83 70 42 38 54 67 80 62 27 20
42 37 38 18 6 10 12 12 11 13 19 34 45 46 59 65 69 74 68 57 43 37 30 50 66 74 84 86 88 86 75 93 94 95 88 78 34 40 44 59 80 70 42
42 42 23 8 10 13 13 13 15 19 31 43 49 51 57 60 65 59 58 45 37 30 46 67 79 85 92 86 43 41 69 96 100 100 100 100 43 37 32 44 77 100 100
47 31 9 11 13 14 16 16 23 27 29 40 48 57 65 60 53 48 42 36 34 36 70 80 88 94 94 44 21 33 72 92 100 100 97 100 64 43 28 43 100 96 100
40 12 11 13 15 17 20 25 32 34 34 50 62 62 55 51 46 41 34 35 31 64 81 88 90 100 82 22 20 34 52 74 93 100 100 100 87 58 25 39 100 100 100
19 9 14 15 17 22 28 34 36 48 63 63 60 48 47 42 40 34 32 32 47 79 84 94 99 100 56 16 23 69 88 76 70 63 99 100 97 66 34 51 100 100 100
9 13 14 17 23 29 37 46 63 62 62 61 48 46 43 41 38 32 32 32 69 78 95 100 98 100 42 13 19 84 89 93 100 78 43 76 87 70 51 72 100 100 100

GFSMA_500_rhum_009.txt.gz
RH
88 97 100 89 96 91 91 79 69 63 64 62 57 61 57 50 43 34 22 14 11 13 13 14 14 12 12 11 10 9 8 8 11 16 17 19 15 14 12 18 20 22 34
74 78 73 78 70 69 82 81 57 79 88 82 76 60 53 48 43 25 12 11 11 12 15 16 17 16 15 14 13 12 10 8 8 8 8 12 17 17 18 13 14 18 22
92 79 57 54 74 71 57 62 65 82 76 84 63 51 34 24 22 24 23 20 18 14 13 16 19 19 19 18 17 15 15 14 13 11 9 9 8 11 17 18 17 13 20
55 54 64 85 72 65 67 67 68 63 65 62 51 31 26 25 25 25 24 23 21 21 20 18 17 17 17 16 16 16 16 15 14 14 13 11 10 8 8 11 16 18 12
43 41 41 44 44 42 38 38 39 38 35 32 28 26 27 25 27 27 27 26 23 19 18 17 16 16 16 15 15 15 14 14 14 13 13 12 12 11 9 8 8 12 18
44 42 40 38 36 32 31 33 36 42 45 42 41 42 45 45 43 41 39 37 35 34 32 28 24 22 18 17 16 14 13 13 13 12 12 12 11 11 11 9 8 7 8
24 26 28 33 40 51 53 54 55 62 64 65 59 55 54 54 53 48 42 37 34 31 28 27 25 22 20 17 14 13 13 11 10 11 11 11 11 10 10 10 9 8 8
28 36 48 59 59 62 65 65 64 67 69 62 55 46 39 38 38 34 31 28 27 23 22 19 19 17 17 18 17 15 13 13 12 10 10 9 9 9 9 9 9 9 9
32 33 36 43 53 61 64 65 65 60 52 46 46 41 35 31 26 26 24 21 21 20 17 15 15 14 14 13 12 12 13 12 12 11 10 8 8 8 8 8 8 9 8
26 27 32 42 52 61 64 60 55 49 50 46 37 39 33 23 17 14 15 15 16 18 18 17 15 14 14 13 10 9 10 10 9 10 10 9 8 7 7 7 7 7 8
30 32 34 47 54 60 56 52 54 56 43 36 38 26 20 18 15 14 13 14 12 6 3 3 3 4 5 5 5 4 3 2 3 4 5 7 8 8 8 8 7 6 6
40 33 42 52 57 56 58 59 55 49 46 42 22 19 17 15 14 10 4 2 3 6 6 7 8 9 9 10 12 13 11 10 9 6 6 6 7 7 7 7 7 7 6
32 30 49 60 64 68 64 60 60 54 40 25 20 17 14 7 3 3 5 7 8 13 16 20 25 25 22 19 18 17 18 18 19 15 15 12 9 9 8 7 7 11 10
30 38 61 71 72 68 63 56 47 36 24 20 16 9 4 4 6 8 11 18 16 25 28 35 40 34 28 22 18 19 22 23 22 18 23 23 17 12 8 10 10 11 17
34 57 72 72 71 64 51 42 28 23 21 12 5 5 7 7 9 10 16 32 32 31 36 48 51 46 36 28 23 22 22 20 19 19 21 25 24 19 13 8 8 9 12
54 76 82 77 63 52 39 27 23 24 9 5 7 8 9 9 10 14 29 38 40 38 30 48 46 35 29 29 29 25 20 20 20 20 18 17 18 22 23 15 10 9 8
83 84 77 69 57 40 27 18 17 9 6 8 10 10 9 11 13 22 35 38 40 43 40 38 50 37 31 30 25 25 30 36 38 38 36 32 25 17 18 21 20 17 10
86 80 72 59 46 31 25 22 20 8 10 11 11 11 12 15 28 42 46 47 48 55 53 44 43 35 33 27 28 35 43 49 56 63 52 51 37 34 19 18 20 22 16
87 76 62 49 41 32 32 33 15 10 11 13 12 14 17 25 40 42 48 55 56 54 56 47 38 33 28 29 41 52 57 68 76 83 76 73 49 43 37 20 23 30 25
83 70 58 52 44 35 36 23 11 12 13 15 14 19 24 33 40 42 47 58 58 51 45 41 32 29 32 52 54 67 74 80 81 84 84 82 59 61 49 31 30 41 40
81 65 50 46 36 41 29 11 12 12 16 16 19 25 26 31 42 55 59 58 47 43 38 31 29 31 58 62 75 77 79 62 37 30 74 100 79 69 63 45 36 53 70
83 59 64 52 46 37 12 10 12 15 22 23 25 29 29 40 51 49 45 49 44 34 29 28 30 57 67 75 80 85 46 14 16 34 98 100 100 79 94 72 37 49 74
84 76 80 49 45 29 10 13 14 21 26 26 30 39 52 51 46 44 41 38 36 30 30 31 58 76 80 85 85 59 14 12 22 49 100 100 100 83 99 94 40 44 57
89 99 81 57 39 13 12 14 19 28 39 45 54 53 54 47 43 42 39 37 33 30 31 46 67 78 80 83 86 12 11 18 52 66 100 100 100 98 100 97 44 38 48
100 100 75 53 13 9 14 16 27 34 49 57 52 54 50 45 42 38 35 34 30 34 37 75 82 87 84 90 55 9 11 31 74 77 95 100 100 100 100 94 51 40 78
99 96 68 32 9 13 14 22 31 35 40 55 57 50 48 46 40 35 33 30 31 34 52 92 92 92 82 93 34 8 12 39 81 91 100 76 97 94 93 92 59 50 100

GFSMA_500_rhum_012.txt.gz
RH
66 69 67 70 64 51 43 54 53 46 41 52 46 54 62 90 79 70 60 50 42 38 24 17 19 14 12 13 13 13 12 11 10 10 10 10 12 18 19 20 16 15 26
53 54 40 37 33 30 59 73 56 41 47 53 58 55 56 57 69 62 54 41 27 24 24 20 18 16 16 17 19 19 18 16 14 13 12 12 10 9 10 12 18 19 18
34 25 30 35 33 36 74 97 62 45 37 36 38 35 36 42 50 48 38 32 31 28 24 26 25 23 25 23 21 20 20 19 18 18 17 16 14 12 10 9 10 12 18
22 22 23 27 30 34 36 37 37 38 37 39 40 40 40 42 38 34 31 28 28 27 25 24 23 22 22 21 19 19 19 18 18 17 16 16 16 16 14 12 11 9 9
18 17 19 22 23 24 25 26 28 31 32 35 35 35 32 41 56 52 52 46 46 45 43 39 34 29 23 22 22 22 21 18 21 20 16 15 14 14 14 14 13 12 10
18 18 17 18 20 22 24 28 32 38 47 56 54 58 58 62 64 59 50 46 41 38 37 34 31 28 27 24 20 20 22 24 20 18 18 18 15 14 13 13 13 13 12
23 24 24 23 21 21 21 24 32 38 45 55 56 58 54 48 52 52 49 41 34 29 24 20 17 16 15 15 16 17 18 17 16 15 14 14 15 13 12 12 12 12 12
31 32 34 32 28 25 25 25 40 42 47 53 51 53 52 52 47 40 37 32 24 20 17 15 13 12 11 9 9 9 10 11 12 15 14 13 12 14 13 12 10 10 11
39 38 38 36 34 28 25 32 49 52 54 62 64 56 46 39 32 31 31 31 30 30 27 24 22 20 18 16 14 11 8 8 8 9 9 11 12 11 12 14 13 11 10
38 42 42 38 37 31 28 42 60 68 66 58 51 43 37 33 29 24 20 16 14 12 10 8 6 4 3 2 2 2 2 4 6 7 8 8 8 9 10 11 13 14 12
44 45 45 41 40 33 37 58 68 69 61 47 38 32 27 21 17 14 12 7 4 3 4 4 4 5 5 5 5 4 4 2 2 2 2 4 6 7 8 9 11 12 12
48 47 44 46 42 43 60 66 66 55 41 36 31 24 18 14 11 9 6 4 5 6 6 6 7 9 10 10 11 11 10 9 7 6 5 3 3 4 7 8 8 9 10
35 41 47 49 50 64 69 68 56 47 40 32 23 17 13 12 12 7 7 7 7 7 7 10 17 25 27 26 21 19 17 15 14 12 11 8 5 4 4 4 6 8 9
42 47 48 54 65 76 74 66 59 50 35 26 18 11 8 6 7 8 9 8 7 7 10 24 38 46 49 45 37 34 25 18 19 15 15 13 13 9 6 6 4 4 6
50 50 53 68 75 70 67 68 59 37 28 21 18 17 10 7 9 9 10 9 8 8 12 30 38 46 41 37 41 37 29 21 17 18 18 16 16 16 13 9 6 7 7
54 53 69 80 77 73 71 69 50 36 31 30 23 19 9 9 9 11 10 11 16 20 17 32 33 36 38 39 39 34 28 25 23 24 21 20 18 17 16 15 14 9 8
55 74 82 75 76 77 72 61 43 31 41 31 20 13 10 10 12 13 14 16 23 29 27 32 43 43 41 42 34 30 28 27 26 23 23 22 24 24 22 17 14 15 14
68 82 82 69 76 67 48 48 36 61 64 30 13 9 10 14 15 19 21 24 30 31 31 32 46 45 38 34 31 26 28 26 25 27 35 33 36 40 39 34 28 16 14
78 91 87 72 79 63 60 65 68 95 84 32 10 10 13 17 18 24 24 24 33 39 46 41 37 35 31 29 27 26 27 33 43 46 55 52 59 59 55 53 45 33 19
78 99 89 79 75 69 68 90 100 80 31 16 10 12 19 20 22 28 26 40 45 43 39 36 35 32 28 28 27 32 46 54 63 64 65 64 66 64 46 54 47 43 31
97 98 94 88 80 80 99 100 85 37 31 13 11 15 23 24 27 44 42 50 43 38 36 37 36 31 29 28 44 56 64 67 76 66 36 21 21 26 32 37 51 56 33
97 100 100 100 100 100 100 95 55 31 16 11 13 19 27 33 37 42 42 43 44 39 37 34 30 26 30 50 65 76 76 72 52 16 13 11 11 49 90 66 65 48 40
100 100 100 100 100 100 98 55 29 16 11 15 18 22 27 36 42 40 40 39 38 34 30 26 27 32 58 83 80 78 75 62 12 12 12 15 23 57 100 77 84 75 64
95 100 100 100 99 98 81 31 16 12 14 18 21 23 28 36 42 43 44 42 36 32 26 24 30 42 78 83 81 76 73 17 12 13 17 44 65 99 84 81 86 90 100
100 100 100 98 96 90 34 12 11 14 20 22 24 25 40 47 44 44 44 39 32 27 26 28 34 71 84 89 83 77 56 9 15 20 44 56 94 100 100 100 96 99 100
100 100 99 94 85 33 12 13 15 19 22 24 28 37 52 56 52 50 46 38 31 26 26 35 52 91 90 93 84 76 28 12 27 49 58 65 68 78 89 95 94 100 93

GFSMA_500_rhum_015.txt.gz
RH
39 42 38 25 15 15 15 16 16 17 28 27 19 19 21 22 37 45 41 48 55 63 65 55 44 30 24 18 16 14 13 13 14 15 15 13 11 10 11 14 17 20 20
25 17 18 18 18 20 20 21 22 26 29 34 30 30 28 32 34 33 30 27 28 34 44 46 42 33 28 28 26 23 21 20 19 18 18 20 18 14 12 11 10 10 14
17 18 19 20 19 18 19 20 23 24 28 28 30 31 30 34 43 45 43 41 39 36 33 30 30 29 29 29 32 32 31 29 27 25 22 19 20 19 18 16 14 12 10
20 22 24 24 25 26 25 24 24 24 22 21 24 31 32 33 36 38 39 43 44 42 42 40 38 36 33 30 27 30 34 34 36 33 29 23 20 20 19 18 17 17 16
27 29 29 30 31 33 34 32 31 29 25 22 26 37 37 41 55 54 59 61 58 51 45 41 36 34 30 27 27 27 32 37 32 29 29 30 29 22 19 18 17 16 16
26 30 34 37 41 40 36 32 35 37 31 28 31 42 47 46 52 54 58 58 55 52 47 40 33 27 23 20 18 19 20 21 24 27 28 26 27 29 23 19 17 16 15
32 36 39 40 35 34 36 36 40 40 34 34 40 49 57 60 58 53 47 41 37 33 30 29 28 25 24 22 20 18 18 17 13 13 17 21 22 23 25 24 22 19 16
32 36 40 38 34 36 39 37 37 40 40 42 49 53 55 51 43 36 30 26 23 20 18 16 15 13 12 10 9 8 10 14 15 15 15 11 11 14 17 18 21 20 19
33 31 29 29 29 31 33 31 39 45 48 55 56 53 46 39 32 27 25 23 21 18 14 10 7 6 5 5 4 4 4 4 6 9 13 14 12 10 10 11 11 15 18
22 23 24 24 26 28 30 35 47 51 59 62 59 51 38 30 28 25 22 20 11 8 6 3 3 3 5 5 4 4 4 3 3 3 3 4 6 8 9 9 9 10 11
24 25 25 26 26 33 42 46 55 64 58 43 34 28 31 31 23 17 14 12 26 27 3 4 6 6 7 7 7 6 6 5 5 4 4 3 3 2 3 4 5 7 8
26 26 27 28 40 47 48 56 64 56 41 32 31 33 30 30 28 34 48 34 22 7 6 8 9 8 8 8 8 7 7 8 8 6 5 5 4 4 3 2 2 3 4
30 30 37 45 48 49 56 71 61 47 42 44 32 37 26 24 39 42 19 23 10 5 7 9 10 9 8 12 11 14 26 32 25 19 15 12 11 8 6 4 3 2 2
34 43 54 54 52 54 65 67 64 60 55 50 37 32 42 73 50 25 25 12 5 6 8 10 13 14 16 16 22 32 31 29 28 26 24 20 15 12 10 9 7 4 3
77 69 62 58 56 58 63 59 66 66 59 48 46 54 84 78 30 24 12 6 8 8 8 12 20 29 28 33 37 31 29 29 29 27 23 20 17 15 12 11 10 10 7
86 68 100 60 65 71 65 69 87 92 86 71 62 88 94 76 24 14 6 8 9 11 9 18 27 26 28 33 38 37 35 35 33 26 22 21 18 16 14 13 11 11 10
76 69 58 68 71 87 79 82 100 100 100 97 100 100 100 38 14 8 9 11 13 14 14 21 30 31 30 31 32 30 27 25 24 21 21 21 21 22 21 19 17 15 13
68 68 77 77 75 73 88 100 100 76 77 100 100 100 88 27 10 10 13 13 15 20 21 25 33 28 27 27 27 27 27 26 24 21 24 24 23 22 21 22 21 18 16
78 73 78 87 80 88 100 94 95 82 100 100 97 88 30 10 10 15 19 20 24 29 32 28 26 29 30 31 31 32 30 27 25 25 29 34 33 32 34 35 33 30 27
74 83 90 89 97 99 100 100 100 97 100 96 74 45 16 11 13 21 21 30 35 34 32 29 30 32 30 29 28 25 26 28 40 45 47 52 51 55 59 52 43 45 46
64 64 76 100 100 100 100 100 100 99 100 72 30 14 12 15 18 20 23 34 36 34 34 34 34 31 27 22 22 27 35 49 66 60 58 66 49 57 50 35 40 48 51
96 100 100 100 100 100 100 100 99 99 51 19 9 11 16 20 23 22 36 41 40 35 39 36 31 24 21 20 26 49 58 65 78 66 51 45 14 13 14 14 14 15 20
97 100 100 100 100 100 100 100 98 61 29 12 12 18 23 26 28 33 44 44 44 43 40 33 27 21 21 25 53 73 67 65 64 65 30 13 17 15 13 16 21 17 36
100 98 100 100 100 100 99 92 71 36 13 16 19 25 27 31 41 53 58 55 53 47 40 31 25 21 25 39 62 66 69 67 64 26 16 18 17 20 26 53 78 100 63
100 100 100 100 100 98 86 58 26 14 14 22 28 31 36 50 60 61 62 62 58 48 38 30 25 24 28 53 67 75 69 62 44 13 19 26 30 44 48 56 82 64 72
86 100 100 100 99 86 43 18 17 16 20 26 35 35 50 61 62 64 68 68 61 47 35 29 27 28 34 68 77 78 69 69 26 15 30 27 44 62 67 81 72 77 100

GFSMA_500_rhum_018.txt.gz
RH
24 18 14 14 15 17 19 19 18 19 19 18 18 18 18 19 20 21 23 24 26 28 26 26 32 36 45 45 39 34 30 24 18 15 14 14 14 14 12 12 12 14 19
16 16 19 21 21 23 22 22 23 22 20 21 23 25 24 25 24 25 25 26 29 32 35 33 30 33 38 39 38 44 42 37 32 26 21 17 16 16 16 16 14 12 11
20 23 24 23 23 22 21 21 22 23 24 29 35 34 31 30 29 32 36 37 36 33 32 32 36 38 38 41 41 37 42 48 45 40 36 31 25 23 22 21 21 19 16
22 25 26 24 22 22 23 24 26 26 30 35 38 38 36 34 33 37 42 42 40 41 41 38 35 32 30 31 34 38 40 42 45 46 41 36 36 32 28 24 21 20 20
23 26 26 26 29 32 34 37 34 33 36 36 34 35 36 36 41 50 56 53 49 50 50 47 45 44 42 38 36 36 32 29 31 34 36 35 36 35 34 31 25 20 20
21 24 25 26 27 28 26 26 26 29 30 32 34 42 44 46 52 57 55 50 45 40 36 33 30 28 26 26 28 27 27 27 24 20 23 29 31 30 30 32 28 25 19
20 22 22 22 23 24 25 25 26 29 33 34 40 48 54 60 60 56 50 43 34 29 22 14 10 8 7 7 7 7 12 17 18 18 19 20 17 18 22 26 30 28 26
22 22 22 23 25 27 28 26 26 29 36 40 47 54 60 54 37 29 23 21 18 15 14 13 14 14 11 11 12 7 4 4 8 10 12 12 12 13 15 16 17 19 24
22 22 24 25 24 27 27 26 31 41 43 45 54 60 51 34 26 26 23 20 19 21 25 29 34 32 28 20 12 6 2 2 2 2 4 7 10 10 9 8 12 15 15
23 24 25 26 27 30 32 42 46 45 48 52 59 55 46 35 38 34 31 29 29 33 48 48 35 33 23 17 10 3 4 4 4 4 4 3 2 2 4 5 6 8 12
24 26 29 30 33 45 54 50 49 50 52 59 64 55 53 58 71 72 69 57 52 57 74 55 41 25 16 6 5 6 6 6 6 7 7 7 6 5 3 2 2 3 5
32 32 35 49 64 62 83 64 58 51 53 60 63 62 70 83 75 57 53 66 77 90 90 54 23 8 5 6 8 8 8 8 8 7 7 7 7 6 6 4 3 3 2
34 46 70 69 69 69 82 62 64 59 60 67 70 68 81 94 76 40 40 46 61 76 79 30 9 6 7 8 10 9 9 10 10 8 7 9 11 10 7 6 5 4 4
62 80 76 73 66 67 63 60 61 68 68 69 61 76 96 94 73 75 70 76 72 74 38 11 8 10 10 11 12 14 17 18 19 18 18 15 17 22 20 13 10 7 5
92 71 71 69 72 68 60 65 67 66 66 66 74 82 100 100 100 100 96 90 66 27 16 9 9 11 15 18 23 23 23 24 24 22 22 20 18 18 19 20 18 15 12
75 64 65 72 70 70 80 74 68 62 61 71 94 99 100 94 93 97 91 32 21 13 10 9 10 16 18 23 26 28 28 27 27 25 25 24 21 20 19 18 18 17 15
66 71 79 73 74 87 83 74 84 92 100 100 100 99 97 100 100 96 39 18 11 11 11 12 19 25 28 28 25 23 23 24 25 26 25 24 22 21 20 16 15 16 15
83 87 79 79 86 85 82 86 95 99 95 90 87 92 98 100 80 41 15 11 12 14 16 16 27 33 31 24 23 26 28 27 24 24 27 29 28 25 19 17 18 21 19
77 77 79 78 84 99 99 100 96 82 80 89 99 100 100 77 37 13 11 14 19 20 20 29 30 34 30 28 29 26 24 19 18 19 22 24 24 22 21 22 22 22 21
76 75 78 82 75 72 97 99 98 80 92 99 99 98 77 30 13 11 15 21 23 25 34 38 36 37 35 34 27 22 18 16 20 23 25 29 37 36 35 34 33 25 26
75 76 80 82 94 94 84 100 90 100 100 100 100 50 23 12 12 18 24 26 25 36 43 44 46 44 40 32 25 19 15 20 43 45 51 58 52 53 56 58 55 47 46
66 64 91 86 95 100 100 100 100 100 100 96 40 17 12 13 22 26 29 36 47 48 51 49 51 45 36 28 22 18 21 42 62 56 55 60 53 58 52 30 17 18 29
83 82 92 100 87 100 100 100 100 100 82 34 14 13 16 22 28 32 37 56 59 57 52 51 50 41 32 26 20 26 43 56 57 53 51 65 51 31 19 17 17 17 17
84 100 96 100 100 100 100 100 97 62 17 12 13 18 20 28 34 39 52 58 59 60 64 60 48 38 30 25 25 36 65 68 60 46 54 26 18 19 20 21 20 18 14
100 87 100 100 100 100 100 92 40 19 16 14 18 24 27 33 38 50 59 60 62 66 67 59 47 36 28 25 28 48 69 66 63 47 51 17 22 23 19 23 30 34 34
70 80 100 100 100 100 86 47 26 21 17 17 20 27 34 38 47 60 64 67 73 75 68 56 44 31 28 32 34 53 80 75 64 60 43 19 29 33 34 48 46 77 88

GFSMA_500_rhum_021.txt.gz
RH
18 17 15 17 18 18 17 18 17 16 15 12 11 10 9 12 15 19 20 19 19 19 18 17 18 22 28 34 39 39 38 38 44 42 32 27 19 15 15 16 14 13 14
16 18 19 17 18 17 18 18 18 17 16 13 12 11 10 12 14 17 18 20 22 22 21 21 21 23 24 28 34 39 44 48 45 39 37 37 30 23 17 16 17 15 14
19 20 17 15 15 18 18 20 20 19 20 20 19 17 14 15 18 21 22 25 28 29 29 30 31 32 32 31 32 34 41 47 53 56 52 40 38 36 32 23 18 19 17
20 17 17 18 19 19 19 21 21 22 23 22 23 21 21 23 28 30 32 36 37 43 43 42 39 37 36 35 34 34 34 34 36 41 51 56 58 56 45 38 33 24 20
19 18 18 18 18 20 20 21 22 23 25 25 25 27 29 35 38 42 47 50 55 51 43 37 32 29 26 24 22 18 15 14 12 16 25 36 42 31 42 50 47 38 32
18 17 17 18 20 21 21 22 25 27 29 30 33 38 42 43 48 53 58 55 44 32 26 22 20 18 24 24 24 17 13 13 11 10 9 9 14 29 35 39 43 43 42
18 18 20 21 21 21 23 27 29 30 34 43 49 48 48 51 56 63 62 56 42 32 30 34 48 65 55 50 43 30 23 15 14 14 14 10 8 9 19 26 31 34 36
18 20 21 21 22 26 31 32 34 52 52 52 52 52 53 54 64 70 65 62 61 67 74 70 71 70 64 61 57 30 21 17 14 15 16 28 24 13 6 14 22 23 27
21 21 21 26 32 35 37 54 69 64 57 64 62 58 55 54 60 71 72 76 86 89 84 69 45 40 38 34 28 27 32 44 53 40 26 19 16 10 7 4 9 18 20
21 25 31 33 36 43 68 62 54 47 49 61 57 54 58 56 58 62 73 76 82 83 91 86 58 46 38 34 40 59 44 29 20 17 10 5 5 5 4 2 2 4 13
28 27 25 31 50 54 48 44 75 65 68 69 60 60 64 70 75 70 63 74 67 77 77 84 96 85 62 66 33 24 17 15 12 7 6 6 6 6 6 5 5 3 2
23 25 37 50 72 100 80 61 63 64 63 61 63 68 75 81 85 99 85 86 92 97 99 96 100 97 72 32 19 14 12 10 9 7 6 7 8 8 8 8 7 7 5
53 59 56 98 77 72 63 63 64 65 68 66 72 76 72 75 88 84 79 73 65 58 56 82 100 64 41 23 14 11 10 10 8 8 8 8 8 9 10 9 8 6 6
62 60 43 94 100 93 59 64 69 64 67 69 80 80 82 90 96 84 70 67 56 64 96 99 62 31 21 14 12 11 12 10 10 18 20 18 17 16 16 15 12 9 8
62 70 66 53 61 58 57 59 61 64 72 77 86 93 100 100 98 72 60 58 79 88 84 55 28 18 14 13 14 13 14 15 19 23 22 20 19 18 19 19 18 14 13
95 65 55 62 68 64 68 72 75 78 81 87 92 85 88 93 81 75 96 100 99 75 46 25 14 12 14 16 15 20 24 27 28 24 20 19 20 19 19 19 18 17 16
74 62 69 79 68 75 77 80 83 92 100 100 100 100 100 99 95 90 100 94 61 27 17 12 12 17 18 17 20 29 29 29 24 21 22 23 23 22 20 20 20 21 19
72 80 73 69 82 92 100 98 90 100 87 86 99 96 98 96 100 100 81 34 17 14 14 18 21 22 21 23 27 30 32 31 27 28 24 21 16 13 13 16 22 26 25
83 75 77 86 86 92 100 100 97 83 77 94 96 88 91 100 97 59 23 13 12 16 21 24 24 24 27 31 35 36 36 36 30 23 18 13 13 16 17 18 21 24 25
70 82 87 82 80 74 76 84 81 88 66 81 89 91 100 86 43 17 10 13 16 23 26 28 33 37 42 44 44 41 40 32 25 19 14 16 22 31 34 32 32 27 23
72 68 66 74 75 51 63 82 100 100 72 94 100 100 78 31 14 12 16 19 24 27 30 38 46 55 59 57 52 44 35 27 21 15 24 36 42 48 52 55 55 45 42
65 60 100 100 87 81 44 99 100 62 100 100 100 64 23 17 15 15 21 26 31 32 39 45 49 55 65 60 48 38 30 23 23 18 44 59 40 51 49 52 52 46 45
76 100 73 100 94 44 21 46 67 86 100 90 49 35 23 18 17 20 28 34 35 39 44 45 52 60 63 53 43 32 26 22 23 34 55 66 49 42 48 44 41 37 32
100 58 31 72 18 10 33 82 62 100 72 43 47 29 25 19 20 26 36 39 44 48 56 55 61 64 56 48 37 28 25 29 36 53 55 63 45 48 27 21 23 23 23
62 7 7 21 26 12 31 47 98 74 45 44 50 32 31 22 23 31 42 44 53 61 60 61 62 60 54 43 29 27 31 34 71 67 52 57 51 32 22 27 24 20 18
5 4 5 6 7 13 33 60 59 54 48 58 39 36 32 24 24 34 46 48 60 72 65 67 63 64 55 37 24 26 34 39 72 83 58 65 57 23 23 32 35 42 42

GFSMA_500_rhum_024.txt.gz
RH
19 17 16 19 19 19 17 15 14 14 14 14 13 12 10 10 11 12 11 10 12 13 14 15 18 20 22 21 22 25 30 33 35 34 30 33 40 50 41 30 28 23 16
16 17 19 18 17 18 16 14 15 15 15 13 11 11 12 14 14 17 18 17 18 19 20 19 21 24 26 29 32 32 33 36 37 39 43 46 44 45 40 40 30 20 17
18 20 20 18 17 16 15 16 17 17 17 15 15 15 16 17 19 21 23 23 23 26 28 30 27 25 24 26 30 33 32 33 35 37 40 47 49 51 52 50 40 35 26
19 18 16 14 15 17 17 18 19 17 18 19 20 21 21 21 23 22 24 28 34 39 36 33 30 29 27 25 22 21 20 21 22 23 28 30 34 36 44 45 52 51 38
17 16 16 15 17 18 19 19 18 21 25 27 28 34 32 26 26 32 38 43 45 41 38 37 38 35 32 28 25 23 21 19 17 16 14 15 20 25 27 23 22 30 48
19 18 16 17 19 20 20 22 29 31 34 45 48 40 32 36 42 47 49 49 47 48 48 47 44 41 37 33 32 31 34 25 20 18 17 16 17 15 13 13 13 13 13
18 17 17 19 20 20 28 34 34 41 61 60 54 46 42 51 56 56 59 60 51 48 53 62 66 65 66 64 56 42 41 44 35 29 26 21 22 19 17 11 8 8 9
18 18 20 21 26 32 36 39 47 64 75 64 90 86 63 62 61 59 57 54 54 60 67 72 73 77 88 93 86 68 74 80 66 48 34 38 37 36 30 24 19 12 8
20 27 31 34 35 41 47 51 58 94 98 74 53 57 63 64 64 63 63 64 69 77 89 93 97 92 88 85 89 90 79 67 58 57 50 42 33 30 28 25 20 13 13
53 55 60 58 62 55 63 100 91 86 91 66 51 56 62 60 51 47 60 71 75 77 77 81 82 78 70 64 56 48 41 42 65 75 59 32 29 22 19 18 14 10 8
76 71 80 83 75 81 69 72 99 100 94 71 53 59 61 62 66 66 65 74 79 88 95 99 91 74 58 45 40 38 45 67 81 62 28 23 18 15 14 12 10 7 6
96 88 83 86 86 87 87 80 44 51 49 55 60 61 63 63 69 79 84 90 89 87 92 100 88 69 56 58 69 67 48 38 30 26 21 18 17 14 10 8 6 6 6
100 94 86 91 92 86 72 50 47 54 54 56 62 61 62 67 75 82 87 85 76 72 59 66 67 70 81 73 51 37 28 27 24 21 15 12 11 10 8 10 11 8 6
100 95 100 96 92 86 61 57 59 55 56 56 52 54 71 82 81 91 65 45 54 40 27 72 99 88 57 43 28 24 21 15 14 14 14 14 11 9 17 19 19 18 14
92 100 96 82 87 89 59 58 52 55 62 60 56 67 82 87 86 71 67 24 12 39 89 88 63 40 28 21 17 15 16 21 21 19 18 18 14 16 21 20 20 20 18
85 88 83 88 100 64 56 54 62 65 60 58 72 80 80 68 73 79 41 31 92 94 67 34 24 19 15 15 18 22 23 22 21 24 30 28 24 23 18 16 19 20 19
79 94 91 99 74 55 57 74 69 62 78 87 78 64 25 14 44 13 52 80 75 35 18 13 13 15 19 22 26 28 30 30 28 30 30 28 25 21 20 21 21 20 18
84 73 95 79 59 70 85 67 60 77 85 93 86 72 6 8 22 48 74 58 23 17 14 12 17 21 27 30 32 36 43 37 36 39 36 32 30 28 25 21 17 13 10
53 64 77 68 80 89 74 72 89 93 94 96 96 6 6 15 32 74 44 30 22 20 14 16 22 28 32 35 37 41 49 48 48 43 39 36 30 25 20 15 11 12 13
45 65 75 80 73 72 97 100 100 75 64 87 15 8 20 47 79 40 33 32 31 22 17 23 32 32 36 39 39 39 54 57 52 43 36 29 24 18 14 14 16 20 22
89 92 77 83 97 100 100 100 100 30 7 12 20 14 30 69 44 37 40 42 32 20 20 32 37 38 45 46 51 58 58 55 45 39 30 25 20 18 20 31 33 37 40
84 80 70 99 100 100 62 83 30 7 7 11 11 16 48 52 44 46 46 43 28 21 24 38 42 44 53 50 55 55 51 46 38 32 28 25 22 31 36 39 39 36 40
79 73 75 96 85 72 18 6 5 6 8 10 15 54 58 55 63 53 46 40 29 23 27 42 45 52 55 49 50 54 47 37 30 27 28 44 45 49 46 42 39 40 40
98 100 67 46 29 8 6 6 7 9 10 12 34 51 57 61 77 51 43 42 31 24 31 43 48 62 60 56 54 57 40 25 27 26 28 73 59 65 50 42 42 29 25
93 66 48 26 10 7 7 8 9 10 13 22 43 44 44 66 91 60 46 43 33 26 34 46 55 71 68 63 62 61 46 23 27 33 29 74 65 66 52 47 29 27 29
56 44 27 12 8 8 9 10 12 14 21 37 42 43 58 93 94 70 50 43 36 30 38 50 64 78 73 73 72 66 60 28 22 37 34 75 72 55 72 44 31 28 27

GFSMA_500_rhum_027.txt.gz
RH
43 33 22 15 14 11 13 13 14 14 14 14 13 11 11 12 13 12 11 10 9 10 10 11 13 15 17 19 21 23 24 23 25 25 26 28 28 29 31 35 48 57 56
21 17 15 13 14 16 15 14 14 14 14 14 12 13 16 16 14 14 14 11 12 14 16 18 22 24 26 28 29 28 27 27 26 27 28 30 34 36 32 30 34 39 44
16 16 16 16 17 15 14 14 15 16 15 13 14 14 12 14 16 16 15 17 19 21 23 25 25 25 24 25 27 27 24 24 24 23 22 20 28 34 37 41 38 29 32
16 18 16 17 16 15 16 16 16 16 17 16 12 11 14 17 15 16 20 25 28 29 29 30 29 24 20 19 17 18 21 23 22 21 19 17 15 17 22 27 33 36 34
18 20 19 15 16 17 18 17 18 17 13 12 13 17 19 17 23 26 26 28 31 32 33 32 27 21 21 21 20 18 18 22 25 29 29 27 25 21 17 15 17 27 30
20 18 16 16 17 20 19 25 27 22 17 18 20 21 27 32 30 30 31 34 37 38 37 36 35 35 34 34 35 37 38 37 34 32 32 38 37 30 25 21 19 18 17
20 18 18 17 19 25 35 48 55 41 27 51 60 52 50 52 54 40 45 45 44 44 43 47 50 53 56 59 61 60 58 56 55 53 55 58 55 48 44 32 28 28 25
23 26 28 35 50 57 63 68 70 60 48 53 54 44 47 60 57 44 48 49 50 49 50 56 64 71 77 82 81 78 82 82 80 75 63 57 62 56 56 58 57 54 42
52 55 68 78 78 70 71 66 71 66 63 56 51 49 46 52 45 51 55 58 55 58 63 69 73 75 75 64 53 59 51 46 64 67 57 55 48 48 40 38 35 27 23
54 66 76 76 75 78 76 68 93 98 78 75 56 54 57 56 52 55 64 67 64 67 62 59 63 62 51 35 8 5 6 14 38 59 56 52 47 42 46 55 54 52 32
65 81 83 83 82 84 83 80 68 100 100 91 64 56 56 59 68 69 55 53 44 42 34 29 34 33 15 5 6 10 27 61 69 68 68 62 56 48 42 40 33 26 31
89 89 94 94 92 89 87 88 95 93 92 90 66 60 67 71 61 51 51 51 55 58 34 8 7 7 6 7 19 32 41 54 61 62 65 66 57 44 42 36 34 31 27
97 99 100 100 100 96 98 100 99 93 100 72 56 68 72 52 46 44 40 45 46 43 6 6 8 8 12 18 21 33 52 51 40 29 25 16 15 13 10 10 10 10 10
100 100 100 98 99 100 96 100 100 100 88 54 65 69 56 43 55 65 40 42 67 14 6 8 10 16 18 19 17 15 13 12 13 13 15 18 20 20 18 16 15 13 12
100 98 96 100 100 100 100 99 98 85 51 68 65 51 53 55 69 75 33 32 6 6 8 11 15 19 22 23 17 13 15 16 20 24 24 23 21 19 17 18 24 24 22
100 100 96 100 100 100 88 82 63 59 69 67 51 49 54 67 86 52 12 6 6 8 10 19 28 30 28 19 15 18 21 24 27 26 27 31 27 26 27 30 30 28 26
100 99 94 98 90 55 58 72 88 76 78 76 67 68 74 88 72 13 6 7 9 15 24 34 37 39 25 17 18 25 28 28 28 29 31 40 40 40 37 34 32 27 22
100 87 58 66 46 52 85 93 72 74 84 82 78 100 91 37 6 7 8 10 14 37 42 44 48 30 24 18 26 32 34 34 33 32 34 46 48 46 41 37 33 30 25
65 44 47 41 43 81 94 78 73 90 78 98 99 96 8 5 7 8 10 15 39 51 52 51 41 32 22 22 34 37 42 39 39 35 43 50 45 40 35 31 27 24 21
41 43 44 48 87 92 88 92 73 93 98 92 92 22 6 8 9 11 16 40 57 57 55 57 43 37 22 27 37 41 47 46 43 38 43 43 38 34 30 24 20 19 18
42 45 53 86 84 99 97 93 100 98 59 35 18 13 8 9 11 15 38 43 58 55 68 62 50 40 23 32 42 50 51 48 48 45 40 35 32 29 25 21 23 26 22
50 59 87 84 78 71 100 100 94 65 33 12 8 8 9 11 14 24 42 41 46 70 81 72 54 38 27 35 47 58 54 51 48 44 30 26 26 26 25 29 37 31 28
64 78 82 97 85 85 82 79 63 40 21 10 9 10 11 15 24 41 44 46 68 88 90 75 56 35 30 40 51 62 59 58 54 48 29 28 27 30 39 48 53 44 37
75 96 86 92 92 91 73 60 47 33 16 10 10 12 14 23 46 53 49 72 92 99 88 73 54 35 33 44 56 66 61 65 61 53 34 23 30 38 63 59 59 46 41
84 93 97 100 91 84 72 60 41 20 11 11 12 14 20 46 70 74 81 100 99 100 88 75 50 37 39 49 59 70 63 60 63 64 42 21 26 47 69 60 50 51 41
100 100 98 91 85 81 64 35 16 12 11 11 14 20 39 86 100 100 100 100 100 99 89 66 44 41 45 56 69 75 64 58 63 64 54 22 22 35 79 68 54 52 48

GFSMA_500_rhum_030.txt.gz
RH
75 63 61 60 22 18 13 12 12 12 10 10 11 12 10 9 7 6 7 12 13 12 11 14 15 18 19 21 22 22 22 21 21 20 18 20 23 26 26 24 25 25 23
51 29 28 19 20 15 13 13 12 11 11 10 10 10 9 10 12 14 16 15 14 18 20 21 21 22 23 24 24 22 21 17 15 14 14 13 15 18 21 23 25 27 27
31 19 18 19 16 14 13 13 13 12 11 10 11 11 12 15 17 18 17 18 22 24 23 23 24 24 22 18 17 15 13 14 15 15 14 12 12 13 14 16 20 22 22
19 17 17 17 16 14 14 14 12 12 15 23 26 17 16 19 21 25 30 29 26 24 26 29 29 27 24 19 15 15 19 20 20 20 21 20 17 17 17 18 18 19 19
18 17 16 17 16 14 13 12 12 21 31 35 32 17 21 25 30 32 35 42 47 39 33 34 30 25 23 22 20 20 22 24 27 29 28 27 26 22 20 21 23 24 23
17 18 19 18 16 14 14 23 38 49 44 33 25 22 30 37 39 37 33 28 30 34 39 41 34 28 28 27 24 25 22 22 20 22 26 31 33 31 29 25 20 20 30
18 19 18 18 19 29 43 52 61 63 57 47 29 44 55 71 68 48 38 32 33 39 43 39 31 30 24 23 23 22 17 16 17 18 21 22 20 16 16 22 30 27 27
21 21 26 54 55 60 60 66 61 57 49 44 51 54 86 67 71 66 41 34 40 44 36 29 30 32 38 40 30 26 19 12 12 12 11 9 7 6 4 5 6 12 24
26 39 49 55 66 70 69 61 36 39 44 52 62 76 86 86 59 30 32 42 49 41 32 37 39 30 26 27 26 20 12 9 11 10 7 5 5 5 6 7 7 15 27
32 44 52 61 76 76 69 58 65 74 82 60 76 89 83 90 84 46 44 49 52 48 39 56 60 44 28 18 13 12 10 11 9 6 5 7 14 32 30 46 80 73 68
49 53 57 69 82 80 76 73 85 72 87 83 97 91 68 79 63 58 63 58 44 44 49 62 61 51 22 11 10 12 10 7 6 7 9 13 16 52 96 97 83 72 78
80 83 87 85 82 79 85 94 90 88 84 85 100 81 74 70 55 61 52 57 65 69 68 70 55 20 10 11 11 8 7 7 10 17 20 18 14 12 12 12 20 44 70
98 99 97 92 98 97 100 100 86 99 95 95 95 66 75 63 72 72 66 67 79 75 61 29 12 9 9 9 8 8 11 15 24 19 15 13 14 15 14 14 13 12 10
98 98 93 99 99 96 99 95 87 100 100 78 46 77 70 70 71 72 80 74 81 87 38 13 13 10 9 8 10 18 26 26 20 16 15 18 20 23 25 24 22 21 20
97 94 95 93 88 81 93 81 100 88 99 48 71 83 74 61 64 72 86 100 96 71 10 8 9 9 10 15 27 33 30 28 20 16 22 25 28 27 25 24 23 21 18
97 91 89 76 100 99 99 100 98 95 56 88 96 84 74 58 84 89 90 68 42 15 11 9 10 13 25 39 43 47 34 30 17 22 29 31 30 30 29 33 34 26 22
92 94 92 99 100 100 98 91 75 58 88 94 92 81 80 91 97 88 54 23 14 10 9 10 16 30 36 42 50 56 42 28 19 26 33 32 31 32 37 48 47 40 36
60 60 70 67 55 49 49 73 64 95 100 100 100 100 100 100 100 72 26 15 12 10 11 14 35 43 42 52 65 60 44 26 22 32 36 29 29 30 38 46 45 42 39
20 16 27 26 40 47 65 83 100 97 87 79 77 95 100 100 77 32 26 18 11 11 14 24 39 42 49 67 72 60 41 25 26 36 37 32 31 39 38 38 37 34 32
13 18 23 31 46 58 75 81 85 90 100 87 79 89 81 54 40 27 18 12 12 15 26 42 47 48 80 79 73 60 38 25 33 41 40 36 34 38 33 31 30 27 24
15 17 22 36 48 97 95 94 93 87 90 91 97 75 63 55 40 19 12 12 15 24 47 56 53 85 87 86 74 60 34 27 40 44 43 44 32 36 26 25 25 24 24
16 19 23 45 57 80 99 100 100 93 100 100 93 83 67 44 21 13 13 15 23 46 67 76 79 100 95 90 79 54 33 34 47 54 45 48 44 38 23 24 26 26 32
19 23 37 56 66 88 97 97 100 98 98 98 91 76 44 26 18 14 15 22 38 69 96 100 100 100 96 97 80 44 35 42 55 59 48 51 50 42 22 22 28 45 52
28 41 56 68 77 98 100 100 100 93 85 87 70 52 37 24 17 18 26 30 43 80 100 100 100 100 100 93 58 41 40 49 67 68 53 49 50 45 22 21 28 50 66
43 56 63 71 82 93 98 98 86 76 78 76 68 57 40 25 22 25 35 41 45 66 100 100 100 100 96 65 48 42 46 55 70 74 61 54 54 50 21 20 27 46 57
50 57 66 74 87 90 82 76 76 74 78 80 70 50 31 22 27 34 54 53 51 57 82 78 95 82 63 48 43 45 53 67 79 78 66 53 55 51 22 20 26 44 51

GFSMA_500_rhum_036.txt.gz
RH
98 98 97 95 83 71 57 38 25 14 11 10 10 9 12 20 9 8 8 7 7 8 10 11 12 17 17 18 19 19 20 21 22 23 21 18 14 13 11 10 9 9 9
98 97 92 78 68 55 38 21 16 13 12 12 11 16 29 19 8 7 11 10 11 12 11 12 12 13 16 19 21 22 24 26 27 26 21 16 12 10 9 9 10 10 10
95 94 76 66 58 37 21 18 15 13 13 13 13 29 22 11 11 11 6 10 12 15 16 18 20 20 20 21 23 25 27 28 28 27 26 22 15 11 14 14 13 12 11
73 52 29 26 25 20 20 17 15 14 13 14 32 36 19 11 11 12 18 10 12 18 25 32 30 27 27 26 26 27 27 29 29 26 21 17 18 19 18 18 17 17 17
50 33 21 18 20 21 18 17 15 14 12 34 39 32 18 19 21 31 31 21 27 16 17 38 48 33 32 33 35 31 27 29 27 23 19 21 27 29 28 26 24 23 23
61 31 18 19 21 19 18 16 15 14 32 47 39 44 40 40 41 50 45 34 37 45 36 35 35 34 37 38 44 39 34 41 38 34 32 32 31 29 27 24 22 20 18
56 25 20 19 19 18 17 15 18 30 40 47 39 50 53 53 60 55 56 42 37 52 78 77 70 40 40 39 36 32 44 49 42 39 37 33 30 27 23 20 18 17 16
42 19 20 21 20 19 19 30 35 37 44 60 56 64 58 50 41 42 37 29 58 73 74 51 64 52 58 48 39 33 37 45 49 44 38 32 27 25 22 20 18 16 15
42 25 22 23 18 18 22 28 46 56 73 78 76 74 69 75 69 36 36 32 45 83 84 65 44 53 57 58 58 51 55 57 51 40 37 34 29 26 23 21 18 15 12
52 54 56 54 35 26 30 44 71 85 92 79 89 89 93 96 89 85 71 55 60 80 77 35 56 70 68 58 52 50 64 62 46 41 40 34 30 29 24 18 12 8 4
24 43 31 67 72 68 52 54 97 99 98 94 98 94 100 100 100 100 98 96 84 82 46 35 57 64 62 58 63 68 62 55 50 47 40 38 31 21 14 7 5 8 12
89 96 96 91 99 99 98 98 99 94 99 87 85 97 100 99 97 92 79 90 92 54 50 59 65 63 67 75 79 67 62 64 59 50 41 28 14 8 9 15 19 25 28
85 83 90 97 98 97 99 99 92 100 100 75 97 100 99 100 99 95 98 89 39 62 86 100 98 90 84 78 73 63 71 64 58 45 24 12 9 18 31 32 36 36 24
48 54 90 90 94 96 94 67 56 65 71 80 100 96 86 97 100 100 54 34 55 80 96 100 100 96 91 83 72 73 65 63 51 28 14 11 24 41 45 47 45 32 20
54 48 74 83 60 39 43 31 36 37 27 50 99 100 100 92 41 29 44 73 99 87 95 100 96 100 100 90 84 71 64 51 27 15 10 19 47 63 57 56 46 29 18
56 72 76 70 57 41 26 12 12 14 18 34 40 44 28 35 38 51 87 100 100 89 89 99 100 99 93 85 75 66 53 30 16 15 21 34 69 63 62 60 38 22 20
64 65 53 53 18 11 10 14 19 21 27 35 48 46 53 44 47 54 97 99 100 100 98 100 87 85 82 77 66 52 30 16 14 22 35 69 76 63 72 47 28 20 22
60 51 38 15 9 10 18 23 26 32 31 65 36 37 42 54 66 81 100 100 100 100 90 79 82 81 71 63 49 30 18 18 22 38 67 74 84 80 62 36 24 23 32
50 25 12 9 12 20 24 30 35 37 32 34 36 46 54 63 83 98 94 92 88 84 88 78 68 65 59 44 29 18 15 22 29 43 76 88 81 72 50 30 24 29 40
28 15 10 13 20 25 30 35 43 41 37 39 46 54 69 80 78 82 85 87 91 83 72 71 67 58 40 26 22 20 17 37 44 50 60 83 87 66 44 28 25 32 42
12 12 19 20 22 27 31 41 47 45 44 48 52 61 64 69 81 86 95 86 70 67 66 64 55 38 21 22 33 44 47 57 59 58 72 65 70 58 38 30 30 40 43
19 22 18 20 18 24 38 42 46 50 52 53 56 59 66 69 78 81 67 61 58 61 61 53 33 16 15 27 45 80 76 81 83 75 76 60 59 48 38 31 37 47 46
13 16 16 17 23 34 41 45 49 56 54 52 52 53 58 66 68 62 56 57 57 59 52 37 30 22 13 24 36 49 62 80 85 82 70 53 54 43 38 36 56 56 48
15 17 20 24 28 34 41 49 59 54 50 50 54 58 59 59 58 55 56 60 60 54 42 34 20 12 11 18 26 33 40 53 58 56 60 46 50 43 39 46 64 64 53
21 26 28 30 32 37 48 58 52 52 54 55 58 62 61 56 57 64 67 64 56 48 39 22 10 12 15 17 22 27 34 46 51 49 50 54 47 43 40 59 72 64 52
30 34 36 37 42 48 56 54 53 55 54 55 59 62 63 68 72 72 68 58 49 43 29 8 9 14 15 16 18 29 67 77 58 48 62 56 48 50 48 86 78 65 53

GFSMA_500_rhum_039.txt.gz
RH
84 98 94 98 100 96 95 61 26 28 18 12 11 9 9 23 15 8 7 6 6 6 6 7 8 8 8 9 11 13 13 13 13 15 17 18 20 22 23 19 15 12 10
94 100 96 99 98 95 73 45 30 21 14 12 11 10 20 29 17 9 7 8 7 6 7 7 8 9 11 12 14 18 20 19 20 20 19 20 20 19 19 21 21 14 12
99 98 100 98 90 74 45 27 22 16 13 12 12 27 44 34 14 11 14 12 11 11 10 9 8 7 8 9 13 20 25 27 26 26 26 24 23 24 22 19 19 21 22
98 97 90 80 66 47 25 22 19 15 14 14 13 45 46 44 21 14 13 15 21 25 20 11 10 11 14 14 12 19 27 31 34 32 29 28 25 23 23 22 19 21 27
85 58 41 33 34 26 21 19 16 15 14 14 17 45 40 45 44 55 30 18 27 25 19 18 21 30 44 55 47 27 35 40 40 35 29 31 34 31 30 29 27 26 26
54 50 24 21 20 19 18 17 16 15 14 18 26 37 43 45 50 53 61 48 40 33 31 43 36 46 63 75 56 32 48 51 49 44 38 34 32 30 30 31 31 28 25
69 86 30 26 20 19 19 18 17 17 18 31 33 52 73 75 68 57 51 62 64 65 60 56 54 60 84 88 55 36 55 63 66 56 48 44 43 41 40 40 34 29 27
98 74 62 21 24 19 18 17 16 17 23 35 54 80 72 72 71 61 58 60 64 71 79 90 83 98 95 92 33 45 58 65 62 59 54 53 52 47 42 37 33 27 20
96 64 62 25 18 16 18 23 25 26 35 42 69 85 74 70 63 56 84 66 65 76 80 90 95 89 82 40 52 56 58 66 65 63 63 59 53 46 43 39 27 22 20
32 52 75 68 85 83 81 75 66 66 67 67 79 99 97 80 62 71 73 82 59 78 100 96 97 98 43 67 58 68 65 71 69 62 53 53 52 47 44 33 28 25 22
40 30 70 51 90 85 88 87 91 97 90 95 98 63 94 89 58 64 69 74 78 94 96 96 75 33 52 76 62 59 67 70 68 66 58 54 52 46 39 33 30 24 19
69 95 85 96 94 86 87 94 96 98 95 80 78 88 88 69 61 60 94 69 93 98 88 39 36 50 66 66 63 63 69 74 71 69 65 58 50 44 37 30 22 16 10
93 96 96 94 72 86 95 83 50 49 62 46 38 21 17 17 21 59 84 94 98 43 35 44 38 56 73 77 74 58 57 65 71 72 64 54 47 40 26 18 11 8 18
98 91 78 82 66 84 74 62 50 42 26 11 11 14 18 28 41 44 53 45 32 39 52 68 86 86 90 87 69 68 71 69 58 58 56 48 40 25 14 11 12 29 55
96 94 98 92 94 93 63 56 26 10 11 13 17 20 25 29 30 38 30 38 50 54 57 79 100 100 98 86 81 79 63 56 51 55 50 37 24 13 13 24 57 70 67
80 96 95 97 98 83 52 25 10 9 14 20 23 30 33 38 36 45 53 53 56 54 46 68 79 87 98 94 88 64 54 53 57 48 30 20 15 16 29 43 76 81 74
81 54 92 91 62 51 30 13 11 21 25 26 35 41 44 42 43 49 53 54 60 63 48 46 54 71 76 76 66 55 53 54 48 35 21 17 21 31 36 58 76 91 75
87 66 57 61 38 36 12 11 19 22 24 30 33 38 46 47 52 54 52 53 58 56 47 43 56 60 64 62 61 62 58 48 40 32 19 16 35 56 51 54 64 66 62
42 60 73 48 28 13 12 19 19 16 21 21 31 40 48 52 58 55 50 47 48 49 54 51 50 53 53 57 61 60 48 38 31 19 14 24 56 68 67 66 66 53 50
71 66 32 26 13 16 20 16 17 16 19 25 35 44 47 54 55 48 47 50 53 56 58 58 55 55 57 63 64 49 39 25 13 18 19 31 77 81 90 86 74 57 45
56 32 29 13 16 16 14 15 16 20 26 31 38 47 53 53 48 50 50 54 58 60 63 63 64 67 65 61 53 45 25 13 13 25 27 35 52 78 88 90 68 53 43
33 23 12 14 13 14 15 17 23 28 31 34 44 50 50 48 51 49 50 55 62 66 68 70 67 64 58 55 49 31 13 16 25 25 37 46 52 52 79 68 56 52 44
18 14 14 14 15 15 17 24 32 34 36 44 50 50 49 50 48 57 66 69 71 73 78 71 62 58 54 50 38 18 12 16 20 28 48 53 100 92 98 69 54 53 46
16 15 16 15 14 20 29 37 38 39 49 53 50 50 54 53 59 62 67 68 63 64 68 68 66 58 53 42 15 13 14 15 15 23 78 100 100 100 100 64 54 55 52
16 17 14 14 20 35 45 45 43 52 52 49 59 63 65 70 72 73 74 77 72 74 72 68 64 56 43 19 11 14 14 10 8 74 100 100 100 100 100 59 56 55 63
17 14 15 16 37 54 53 48 58 60 59 65 68 74 78 77 80 84 83 85 84 82 74 70 61 43 18 10 13 17 15 6 8 24 100 100 100 100 77 76 62 82 64

GFSMA_500_rhum_042.txt.gz
RH
84 87 88 97 100 93 100 98 84 78 56 34 14 13 11 11 11 13 8 7 8 8 9 11 11 9 7 7 7 7 7 8 8 9 10 10 10 12 14 17 19 21 22
86 86 93 97 100 99 96 90 84 54 53 18 14 12 11 15 22 20 10 11 11 15 16 13 9 7 8 9 11 11 11 12 15 18 12 11 12 15 18 19 20 20 22
83 84 84 99 97 100 91 80 33 47 29 15 12 11 11 32 37 34 20 20 23 22 20 19 19 25 33 24 18 19 17 20 18 22 17 14 19 22 24 24 24 24 24
81 81 89 88 98 92 81 68 61 30 18 14 13 12 11 34 39 37 37 42 44 40 35 33 38 37 26 43 50 54 33 29 42 54 32 21 26 31 35 33 29 27 27
79 85 97 90 84 78 69 47 25 21 16 13 13 12 13 27 41 48 48 49 54 45 42 44 50 60 58 54 63 67 61 68 80 50 26 28 33 40 42 39 37 36 34
81 86 75 66 60 56 36 25 22 19 16 15 14 20 32 45 62 57 48 49 52 53 49 51 68 71 66 63 67 79 90 92 62 36 30 37 36 37 38 38 36 35 34
54 49 38 39 24 24 23 22 21 18 17 17 20 26 36 55 77 70 58 59 54 45 44 42 61 78 93 86 84 92 85 57 42 50 39 41 46 48 51 54 50 42 38
82 71 64 26 25 21 21 21 20 19 18 16 21 28 35 39 64 67 64 41 27 22 18 35 50 66 78 78 85 86 45 43 65 68 64 53 48 45 49 46 45 40 39
79 88 66 67 22 27 24 20 19 22 23 33 46 57 59 65 73 68 56 35 25 14 19 24 31 32 53 98 88 36 31 47 76 73 76 83 61 47 43 39 37 38 36
30 59 68 66 67 50 47 53 49 54 56 61 70 95 70 65 58 36 45 24 12 16 25 43 74 79 90 64 31 33 34 50 61 69 85 62 47 38 34 33 35 33 31
33 27 39 74 92 71 72 90 73 68 79 81 97 95 85 56 31 13 13 17 15 20 24 30 39 44 29 32 35 40 40 43 54 67 53 51 46 32 30 32 30 28 28
48 63 56 62 83 83 90 84 96 88 86 53 56 50 44 19 13 12 14 19 23 30 32 37 30 31 33 32 35 40 34 39 49 45 46 43 42 38 36 34 33 31 33
51 73 79 98 96 95 92 82 94 95 73 51 39 26 11 11 16 20 20 22 24 28 32 32 37 38 40 41 39 32 34 34 34 36 38 42 48 48 45 41 39 38 38
83 96 99 99 96 96 94 93 97 94 60 42 13 8 10 15 13 12 16 15 16 31 36 46 48 49 47 45 37 38 38 40 40 41 46 50 53 52 50 44 43 37 24
96 100 98 99 98 97 98 89 97 67 32 14 11 13 18 16 15 16 15 23 26 33 38 51 51 49 44 42 48 45 45 47 48 51 54 55 53 54 48 43 30 19 16
83 96 98 96 99 97 98 98 91 48 14 15 25 17 14 13 13 16 26 29 35 36 39 51 51 47 47 50 51 51 53 55 56 56 55 54 52 51 43 26 18 21 42
98 97 96 96 98 97 81 60 34 14 15 30 23 14 14 14 17 22 31 38 45 50 40 40 43 47 47 52 57 60 63 61 57 58 56 55 52 48 31 16 32 45 69
98 97 92 89 66 78 66 32 30 11 16 15 14 15 16 21 25 30 35 48 50 44 37 39 42 46 51 58 65 62 59 60 58 58 56 54 49 36 16 18 45 70 77
97 94 60 60 72 62 34 23 12 16 14 15 17 18 23 26 33 37 44 40 43 41 42 42 44 50 58 68 65 65 66 67 65 62 58 49 21 16 16 20 44 52 63
53 60 73 70 52 30 26 14 16 15 16 16 17 24 31 35 36 39 45 45 42 47 51 52 56 63 67 74 74 79 76 73 69 62 52 29 16 18 25 33 59 70 71
50 60 75 46 26 28 15 14 15 16 15 17 26 33 38 39 42 45 42 47 57 61 64 68 70 69 74 82 88 83 79 79 66 56 28 14 15 18 21 33 61 100 99
46 34 36 30 27 15 14 16 16 15 16 22 34 44 45 44 47 46 53 62 66 69 72 74 76 77 84 93 88 79 78 72 62 44 14 12 18 19 17 32 68 97 100
20 26 28 20 15 14 16 18 15 14 16 36 53 54 48 49 51 55 70 71 78 86 85 78 84 94 89 89 87 85 78 65 41 15 13 14 18 16 12 57 100 100 100
30 31 18 17 15 17 18 15 15 17 35 59 61 52 54 61 64 71 73 94 98 100 94 95 96 92 94 96 95 86 69 41 15 12 15 18 20 11 65 100 100 100 100
31 22 17 16 17 17 16 17 20 35 65 75 64 60 69 74 85 88 94 100 95 86 90 91 85 85 92 94 91 70 38 15 12 12 16 24 18 20 100 100 100 100 98
26 16 15 17 18 18 19 24 35 63 84 83 72 68 78 97 91 83 88 91 82 81 82 87 84 92 96 93 73 33 15 13 14 14 21 25 14 11 95 100 100 100 88

GFSMA_500_rhum_045.txt.gz
RH
77 82 73 96 92 92 91 94 98 98 74 39 21 32 40 13 9 8 11 9 7 8 10 12 12 11 12 18 19 16 11 8 9 11 12 12 13 13 15 12 12 12 12
69 86 80 90 86 90 89 90 97 88 41 52 75 34 13 11 11 15 18 19 10 10 14 16 20 27 28 31 35 34 26 22 25 23 22 18 14 15 21 15 15 16 16
78 80 83 86 82 90 95 100 95 78 74 63 44 17 14 13 13 30 31 27 29 26 22 20 28 34 31 34 37 33 35 42 44 37 28 27 17 20 20 17 15 15 18
89 85 86 82 83 100 100 98 88 79 51 69 20 16 15 14 13 16 31 31 31 30 26 22 29 33 31 32 37 39 39 32 27 40 42 28 20 21 20 19 18 20 24
91 89 92 86 88 98 98 96 52 49 64 30 20 17 14 13 15 19 26 43 47 44 41 36 37 25 24 24 24 18 16 28 40 38 39 20 22 21 24 30 26 23 20
92 93 90 74 92 98 96 94 82 62 29 24 19 16 15 14 18 29 34 40 52 51 50 48 37 30 13 12 11 13 16 20 24 34 35 24 22 20 25 36 24 16 14
86 72 74 81 90 84 77 52 35 27 25 22 18 16 14 14 21 28 31 31 49 60 58 50 33 22 12 16 23 37 38 33 40 61 28 24 25 23 21 20 17 17 17
57 56 53 46 40 40 41 33 27 25 24 22 20 16 15 22 36 50 54 56 62 60 76 53 17 12 12 14 21 24 44 31 33 31 29 31 27 22 21 21 21 22 24
63 67 66 52 28 24 21 22 23 23 22 19 17 16 36 53 59 70 57 51 45 29 23 12 11 14 15 18 22 27 31 33 34 33 36 31 26 27 27 27 28 27 28
58 77 78 81 77 42 26 27 25 21 20 36 53 59 56 51 67 78 75 54 17 8 9 11 13 14 13 16 24 32 36 35 36 36 33 31 34 34 34 33 30 33 35
37 72 75 81 69 66 34 29 50 75 100 85 73 69 64 67 63 43 23 13 21 10 11 11 11 12 14 20 31 33 35 36 36 33 34 36 37 39 39 40 39 37 37
36 42 41 41 59 68 79 78 89 99 99 98 79 82 60 45 34 26 19 11 9 12 10 10 11 13 20 27 30 36 33 32 34 34 37 40 41 45 47 45 40 42 48
42 67 67 69 68 67 84 87 95 99 98 96 91 81 63 54 28 8 8 9 10 9 10 14 21 26 30 32 32 30 28 28 30 35 39 41 46 50 48 48 53 57 56
80 72 79 96 100 97 99 98 99 99 99 97 100 93 39 14 8 10 9 9 9 10 12 19 30 35 35 31 29 27 32 35 38 41 46 50 53 53 56 63 66 65 59
82 92 70 90 80 98 97 98 98 99 98 97 96 72 59 27 18 12 10 10 12 14 18 26 32 39 34 30 33 38 40 44 49 56 61 62 62 67 74 74 72 66 61
49 89 98 78 87 97 99 98 98 99 97 95 93 58 21 14 14 12 12 12 16 22 28 32 33 36 35 40 45 46 50 60 69 74 75 80 86 89 83 80 74 68 60
79 96 97 97 94 98 99 97 95 94 78 32 27 38 29 16 13 12 13 20 27 32 35 35 32 42 52 56 60 59 66 73 77 82 86 95 96 89 87 82 73 59 39
97 98 96 97 96 97 96 96 91 70 31 22 29 19 14 13 12 12 20 29 38 40 42 40 40 51 59 72 77 81 82 74 76 87 95 90 82 89 87 80 60 25 43
93 92 94 90 71 87 84 83 59 28 25 20 14 13 13 14 14 22 35 46 48 49 51 46 49 70 76 84 86 83 74 77 84 84 79 76 89 90 84 65 27 18 19
77 80 51 49 64 85 92 84 35 29 18 15 15 16 14 16 23 38 55 59 54 49 58 60 67 70 82 97 83 79 77 91 84 83 80 94 95 87 70 36 17 17 21
65 93 84 90 90 64 81 78 33 20 15 16 18 18 18 19 32 56 67 60 52 59 65 68 78 86 89 94 91 85 80 72 73 76 85 82 86 67 38 19 15 19 26
70 69 62 82 47 69 63 30 20 17 18 20 21 19 19 25 41 66 77 69 64 68 77 87 88 77 82 97 88 84 83 78 66 79 86 72 63 28 16 15 16 21 27
73 72 69 68 57 34 34 20 19 19 21 22 20 20 24 33 55 81 80 73 70 77 82 89 85 85 90 90 84 88 88 81 74 84 90 68 25 14 16 14 18 24 26
84 44 24 18 26 33 26 18 18 18 21 22 21 22 30 57 82 91 91 88 84 84 88 90 89 91 89 92 94 90 86 82 80 85 65 21 12 12 13 15 21 28 22
41 24 24 21 21 30 22 19 20 21 22 23 24 31 61 80 88 91 92 96 94 98 98 98 100 100 100 100 97 95 99 99 93 79 20 11 10 12 15 18 28 25 77
34 32 30 21 20 28 21 19 19 22 25 26 28 48 83 92 92 92 89 89 87 93 99 100 100 100 100 100 100 100 100 100 85 47 11 10 10 14 16 24 26 18 100

GFSMA_500_rhum_048.txt.gz
RH
93 95 96 96 92 100 100 97 93 95 100 100 94 44 19 15 13 19 18 16 16 10 7 8 9 10 9 10 10 13 15 18 19 17 20 24 12 6 7 11 13 13 14
88 90 96 99 95 96 100 99 97 99 93 78 49 42 20 43 45 20 18 25 28 23 16 10 9 11 12 10 15 21 20 21 18 14 15 19 9 9 11 16 15 16 16
88 82 99 98 100 98 94 91 96 100 99 86 56 37 63 61 22 16 27 21 18 25 24 21 20 23 20 25 23 20 19 9 7 7 7 8 9 12 16 17 17 17 18
94 94 98 99 97 92 97 96 98 100 100 81 63 73 46 22 28 54 17 12 12 14 18 19 17 29 40 40 27 18 8 8 8 8 8 10 14 16 19 22 21 22 20
92 94 99 100 98 100 98 100 98 98 85 88 87 79 30 19 22 17 14 13 11 15 20 23 31 43 41 39 25 14 11 12 9 10 13 14 16 21 23 24 24 21 19
99 100 99 98 98 98 98 97 96 95 93 76 95 44 22 20 17 16 16 15 24 32 37 37 48 52 46 37 20 11 8 8 10 12 17 21 23 23 23 21 18 18 20
100 100 98 100 92 94 98 97 97 93 92 74 53 30 20 18 16 14 11 18 32 55 59 60 59 57 59 17 10 9 8 10 12 18 24 25 23 23 17 14 15 17 17
100 100 96 92 95 93 95 93 99 95 81 61 35 24 21 18 15 13 19 56 56 55 52 58 49 34 21 10 9 9 11 12 14 21 25 26 26 17 15 15 16 16 16
65 73 76 70 83 83 82 78 62 48 37 29 25 21 19 18 15 17 46 62 69 76 70 54 15 10 12 10 11 11 13 14 20 22 26 26 20 17 18 20 22 22 22
61 60 59 51 42 38 34 32 30 29 28 24 20 18 18 19 40 66 69 72 64 44 19 22 19 11 11 11 11 12 16 21 28 30 26 20 19 26 29 30 28 32 35
68 80 82 74 74 73 58 57 26 29 26 24 24 24 43 68 73 68 59 44 36 25 12 10 9 10 10 10 12 16 22 28 31 27 24 24 30 33 38 37 44 49 51
42 48 64 81 89 87 80 75 67 54 74 89 83 91 82 78 73 68 56 53 29 10 10 10 10 10 10 12 17 24 28 28 26 25 28 29 34 35 40 49 53 59 65
36 36 35 38 49 49 54 56 68 96 92 92 100 100 96 81 86 77 67 19 10 12 10 12 11 11 15 21 27 30 27 27 29 29 29 42 45 48 54 56 62 69 76
46 40 38 36 63 78 80 82 93 97 100 100 98 98 99 100 96 92 67 61 26 12 10 12 16 19 25 32 34 33 30 36 44 42 49 60 65 65 64 65 70 75 76
31 32 32 56 69 78 70 95 95 99 97 97 97 98 98 95 91 87 71 42 20 12 11 12 19 30 38 39 42 38 38 52 53 53 64 73 75 74 76 80 79 76 70
50 30 24 46 69 95 95 96 97 99 98 99 98 98 97 95 93 77 42 26 15 13 14 15 27 42 46 47 50 44 43 46 55 58 74 87 85 85 88 87 80 75 80
99 89 76 85 90 92 96 98 97 92 98 99 98 97 76 57 53 49 30 21 16 16 15 19 40 52 53 50 54 54 55 61 75 81 80 89 89 91 95 90 84 85 88
89 95 98 94 99 98 97 89 98 97 98 97 96 67 31 21 30 38 18 16 15 14 18 23 47 61 56 55 56 60 74 87 84 78 83 90 88 93 97 93 91 93 95
86 97 99 97 97 91 55 75 84 80 74 71 73 35 26 24 24 17 15 16 15 20 23 41 64 74 70 68 63 71 78 86 87 84 93 97 94 100 97 91 97 97 82
91 53 86 97 99 96 77 73 77 85 89 85 60 35 25 18 16 17 16 19 21 25 40 64 76 79 76 76 75 76 78 89 91 98 100 100 100 100 92 95 99 82 48
91 88 58 86 90 89 100 97 61 64 77 76 57 27 18 15 18 20 21 22 28 37 60 65 73 79 84 87 88 89 79 68 86 90 93 98 100 90 88 94 86 56 25
76 72 79 72 80 86 82 74 79 85 76 39 27 20 15 16 20 23 24 24 27 39 69 86 93 89 91 90 89 91 87 86 80 94 95 93 89 79 87 82 68 40 10
75 81 80 82 93 95 67 56 65 36 28 27 23 16 17 19 23 26 27 30 45 79 86 92 99 99 97 100 92 89 90 82 86 92 89 74 86 78 81 74 42 10 6
81 93 83 78 80 77 76 70 24 20 21 30 22 17 17 19 25 27 30 36 45 78 95 100 100 100 100 98 94 90 88 86 87 89 90 74 81 79 77 59 15 6 6
42 55 77 74 54 49 53 31 30 23 21 27 25 21 23 25 29 33 39 44 53 77 90 98 100 100 97 97 96 94 95 88 75 81 100 94 95 88 72 22 6 6 8
17 20 41 51 46 54 37 36 31 24 29 38 28 22 24 26 30 36 41 48 66 97 100 100 100 100 98 98 96 96 92 91 91 84 100 88 89 70 40 6 6 8 12

GFSMA_500_rhum_051.txt.gz
RH
100 92 86 87 100 100 98 94 93 93 95 94 96 97 95 60 22 21 16 22 15 15 12 9 7 8 8 9 10 10 10 10 13 18 13 12 8 6 6 6 8 11 13
99 97 87 100 100 97 95 84 96 99 99 100 96 92 47 30 40 20 26 26 20 16 17 23 15 12 12 14 16 17 14 16 18 15 8 6 6 7 8 9 12 14 13
98 92 85 100 98 98 96 94 95 95 95 94 96 93 75 27 21 40 38 39 20 26 22 12 14 14 14 15 13 19 24 28 20 8 7 6 6 7 9 10 11 12 14
96 91 86 76 88 96 92 91 90 93 93 94 96 91 32 43 64 56 35 20 32 22 10 10 11 15 16 22 33 37 41 32 22 10 8 7 8 9 10 11 13 15 17
97 95 92 80 85 88 91 94 97 97 99 98 87 84 65 46 74 66 20 40 29 13 11 13 22 26 27 36 48 46 44 29 10 8 7 8 8 10 12 14 19 20 13
96 90 78 87 97 94 92 99 97 95 98 98 99 80 70 85 65 20 27 21 14 13 11 18 30 51 50 47 42 52 53 15 8 7 8 10 11 14 16 20 21 14 13
96 92 94 100 94 95 99 97 100 100 98 99 77 74 83 84 51 22 20 17 16 14 14 42 59 55 48 50 41 24 13 10 9 9 10 12 14 18 21 20 16 15 15
97 100 97 97 97 95 94 100 100 96 93 88 86 81 90 63 31 23 21 18 16 15 20 56 68 76 68 50 19 11 11 10 10 10 13 17 21 22 16 17 15 16 17
99 98 97 97 95 86 92 95 93 96 83 84 97 82 50 36 29 24 20 16 16 23 51 64 71 46 18 23 19 11 11 10 10 12 16 21 23 19 18 18 18 20 25
86 98 97 80 70 68 72 85 80 87 88 82 80 67 47 36 27 23 23 28 46 64 57 45 33 25 13 9 9 10 10 10 12 16 24 25 21 22 24 29 26 31 37
50 57 63 61 60 60 78 72 61 45 57 39 35 32 30 25 23 21 24 57 72 78 57 45 29 16 10 10 10 11 13 15 19 30 32 29 25 29 30 31 31 41 56
34 48 58 62 71 66 59 59 63 46 84 73 42 48 40 30 37 55 74 81 86 82 63 24 14 14 13 11 13 14 14 18 30 36 38 32 32 38 40 40 41 48 51
27 29 31 33 38 74 80 83 73 71 64 70 72 71 80 84 87 94 81 82 89 88 62 46 38 20 15 16 16 16 18 31 40 43 40 38 38 44 49 60 64 62 62
31 35 37 34 32 34 46 44 50 62 66 65 83 94 99 93 95 98 99 95 100 90 82 46 84 55 20 16 15 21 42 47 46 42 40 39 43 48 55 68 75 70 69
32 39 43 40 39 32 38 58 73 74 70 84 90 98 100 99 98 98 99 99 96 97 97 89 41 29 16 15 19 30 51 53 51 49 48 48 50 57 64 77 82 80 85
73 85 77 51 33 30 33 47 60 75 93 95 97 98 98 100 100 96 97 96 97 89 63 51 25 18 16 16 18 26 48 54 62 62 64 67 70 73 83 90 93 93 86
98 98 99 100 89 52 49 56 74 83 94 99 99 97 99 97 100 99 97 88 74 80 52 42 18 15 17 18 18 35 54 62 76 79 81 83 88 95 99 95 92 93 90
83 98 96 88 97 88 98 99 100 97 97 100 99 97 99 98 98 97 85 69 44 51 26 18 21 16 18 19 25 53 74 82 82 89 94 97 100 99 88 89 86 90 93
68 76 92 68 89 88 96 97 93 92 81 96 96 95 95 94 95 61 43 34 33 21 20 21 17 18 21 23 31 50 73 81 84 90 96 100 96 92 88 90 95 100 100
45 41 72 92 84 76 97 98 98 95 86 88 88 82 78 81 87 82 60 47 27 19 18 19 19 20 24 29 43 39 48 74 92 99 100 99 93 92 97 94 99 100 98
23 36 46 82 92 97 87 84 76 84 100 98 71 54 79 73 74 43 29 23 20 18 18 21 22 24 29 38 41 51 71 92 100 100 98 100 93 93 97 98 100 100 99
18 28 42 64 84 97 90 82 73 99 96 76 76 62 77 45 33 34 28 20 19 19 21 27 27 33 38 44 52 62 92 100 96 96 95 92 94 92 90 91 94 96 98
16 21 29 49 66 86 97 92 91 91 92 90 78 65 29 23 22 33 31 23 22 22 24 26 34 41 53 67 64 96 100 98 91 93 89 80 87 77 81 82 90 92 86
18 32 38 48 66 78 96 97 74 80 74 62 65 38 32 30 24 28 37 32 25 26 27 36 46 52 60 72 86 92 92 88 92 94 97 78 81 76 75 85 90 88 78
22 38 35 31 38 60 53 69 70 84 62 48 49 41 39 32 28 29 43 40 31 30 33 42 55 62 65 77 90 95 92 92 89 97 100 86 79 74 78 80 84 86 76
25 27 18 13 13 13 15 18 23 29 53 43 54 43 36 33 35 46 47 34 32 35 44 49 48 58 80 96 97 94 95 96 98 92 100 85 86 87 70 74 82 80 50